| time (UTC) | temp F | wind direction | speed MPH | gust MPH | rain 1hr in | rain 24hr in | rain mn in | humidity % | barometer mb |
| 20260904022446 | 71 | 93 | 4.0 | 5.0 | 0.00 | 0.09 | 0.09 | 96 | 1015.4 |
| 20260904021943 | 71 | 135 | 7.0 | 9.0 | 0.00 | 0.09 | 0.09 | 95 | 1015.0 |
| 20260904021438 | 71 | 160 | 5.0 | 8.0 | 0.00 | 0.09 | 0.09 | 95 | 1014.9 |
| 20260904020933 | 71 | 120 | 3.0 | 3.0 | 0.00 | 0.09 | 0.09 | 95 | 1014.9 |
| 20260904020428 | 72 | 160 | 1.0 | 4.0 | 0.00 | 0.09 | 0.09 | 95 | 1014.9 |
| 20260904015926 | 71 | 115 | 2.0 | 3.0 | 0.00 | 0.09 | 0.09 | 95 | 1015.0 |
| 20260904015422 | 72 | 139 | 2.0 | 3.0 | 0.00 | 0.09 | 0.09 | 95 | 1014.6 |
| 20260904014921 | 72 | 133 | 3.0 | 4.0 | 0.00 | 0.09 | 0.09 | 95 | 1014.9 |
| 20260904014416 | 72 | 110 | 2.0 | 4.0 | 0.00 | 0.09 | 0.09 | 95 | 1014.6 |
| 20260904013911 | 72 | 117 | 3.0 | 7.0 | 0.00 | 0.09 | 0.09 | 95 | 1014.6 |
| 20260904013408 | 72 | 132 | 6.0 | 7.0 | 0.00 | 0.09 | 0.09 | 95 | 1014.6 |
| 20260904012903 | 72 | 126 | 1.0 | 4.0 | 0.00 | 0.09 | 0.09 | 95 | 1015.0 |
| 20260904012358 | 72 | 101 | 2.0 | 3.0 | 0.00 | 0.09 | 0.09 | 95 | 1015.0 |
| 20260904011857 | 72 | 90 | 2.0 | 2.0 | 0.00 | 0.09 | 0.09 | 95 | 1014.7 |
| 20260904011352 | 72 | 111 | 0.0 | 2.0 | 0.00 | 0.09 | 0.09 | 95 | 1014.3 |
| 20260904010847 | 73 | 143 | 3.0 | 3.0 | 0.00 | 0.09 | 0.09 | 95 | 1014.1 |
| 20260904010344 | 73 | 128 | 2.0 | 3.0 | 0.00 | 0.09 | 0.09 | 95 | 1013.8 |
| 20260904005838 | 73 | 120 | 0.0 | 2.0 | 0.00 | 0.09 | 0.09 | 95 | 1013.7 |
| 20260904005335 | 73 | 92 | 5.0 | 6.0 | 0.00 | 0.09 | 0.09 | 95 | 1013.9 |
| 20260904004829 | 73 | 77 | 4.0 | 5.0 | 0.00 | 0.09 | 0.09 | 94 | 1013.7 |
| 20260904004326 | 73 | 84 | 1.0 | 4.0 | 0.00 | 0.09 | 0.09 | 94 | 1013.5 |
| 20260904003821 | 73 | 90 | 5.0 | 6.0 | 0.00 | 0.09 | 0.09 | 94 | 1013.7 |
| 20260904003317 | 74 | 105 | 2.0 | 3.0 | 0.00 | 0.09 | 0.09 | 94 | 1013.6 |
| 20260904002812 | 74 | 5 | 2.0 | 5.0 | 0.00 | 0.09 | 0.09 | 94 | 1013.5 |
| 20260904002308 | 74 | 93 | 4.0 | 5.0 | 0.00 | 0.09 | 0.09 | 93 | 1013.7 |
| 20260904001807 | 75 | 79 | 4.0 | 5.0 | 0.00 | 0.09 | 0.09 | 93 | 1013.6 |
| 20260904001302 | 75 | 83 | 3.0 | 4.0 | 0.00 | 0.09 | 0.09 | 92 | 1013.7 |
| 20260904000757 | 76 | 75 | 0.0 | 3.0 | 0.00 | 0.09 | 0.09 | 92 | 1013.6 |
| 20260904000256 | 76 | 36 | 3.0 | 3.0 | 0.00 | 0.09 | 0.09 | 92 | 1013.7 |
| 20260903235756 | 77 | 357 | 3.0 | 7.0 | 0.00 | 0.09 | 0.09 | 91 | 1013.5 |
| 20260903235253 | 77 | 70 | 3.0 | 4.0 | 0.00 | 0.09 | 0.09 | 90 | 1013.7 |
| 20260903234751 | 77 | 51 | 3.0 | 4.0 | 0.00 | 0.09 | 0.09 | 89 | 1013.6 |
| 20260903234248 | 77 | 75 | 2.0 | 3.0 | 0.00 | 0.09 | 0.09 | 89 | 1013.6 |
| 20260903233744 | 78 | 85 | 4.0 | 5.0 | 0.00 | 0.09 | 0.09 | 87 | 1013.5 |
| 20260903233240 | 79 | 83 | 3.0 | 5.0 | 0.00 | 0.09 | 0.09 | 85 | 1013.7 |
| 20260903232733 | 80 | 77 | 0.0 | 5.0 | 0.00 | 0.09 | 0.09 | 81 | 1014.1 |
| 20260903232230 | 80 | 6 | 0.0 | 4.0 | 0.00 | 0.09 | 0.09 | 80 | 1013.8 |
| 20260903231728 | 80 | 61 | 3.0 | 3.0 | 0.00 | 0.09 | 0.09 | 80 | 1014.0 |
| 20260903231224 | 79 | 80 | 4.0 | 4.0 | 0.00 | 0.09 | 0.09 | 81 | 1013.6 |
| 20260903230720 | 79 | 87 | 3.0 | 4.0 | 0.00 | 0.09 | 0.09 | 82 | 1013.4 |
| 20260903230220 | 79 | 96 | 2.0 | 3.0 | 0.00 | 0.09 | 0.09 | 83 | 1013.6 |
| 20260903225716 | 78 | 63 | 2.0 | 3.0 | 0.00 | 0.09 | 0.09 | 82 | 1013.5 |
| 20260903225212 | 79 | 26 | 0.0 | 3.0 | 0.00 | 0.09 | 0.09 | 82 | 1013.6 |
| 20260903224708 | 79 | 55 | 2.0 | 3.0 | 0.00 | 0.09 | 0.09 | 81 | 1013.8 |
| 20260903224204 | 79 | 353 | 2.0 | 3.0 | 0.00 | 0.09 | 0.09 | 81 | 1013.7 |
| 20260903223659 | 80 | 352 | 0.0 | 2.0 | 0.00 | 0.09 | 0.09 | 80 | 1013.5 |
| 20260903223158 | 79 | 59 | 2.0 | 3.0 | 0.00 | 0.09 | 0.09 | 80 | 1013.0 |
| 20260903222658 | 80 | 8 | 0.0 | 2.0 | 0.00 | 0.09 | 0.09 | 81 | 1013.4 |
| 20260903222156 | 80 | 95 | 2.0 | 2.0 | 0.00 | 0.09 | 0.09 | 81 | 1013.4 |
| 20260903221652 | 79 | 35 | 1.0 | 3.0 | 0.00 | 0.09 | 0.09 | 80 | 1013.2 |
| 20260903221150 | 79 | 85 | 2.0 | 4.0 | 0.00 | 0.09 | 0.09 | 79 | 1013.2 |
| 20260903220649 | 80 | 41 | 2.0 | 3.0 | 0.00 | 0.09 | 0.09 | 79 | 1013.7 |
| 20260903220144 | 80 | 358 | 3.0 | 4.0 | 0.00 | 0.09 | 0.09 | 77 | 1013.4 |
| 20260903215643 | 81 | 294 | 0.0 | 2.0 | 0.00 | 0.09 | 0.09 | 75 | 1013.6 |
| 20260903215138 | 81 | 254 | 0.0 | 1.0 | 0.00 | 0.09 | 0.09 | 71 | 1013.4 |
| 20260903214636 | 81 | 212 | 2.0 | 4.0 | 0.00 | 0.09 | 0.09 | 70 | 1013.5 |
| 20260903214132 | 84 | 209 | 0.0 | 3.0 | 0.00 | 0.09 | 0.09 | 70 | 1013.4 |
| 20260903213627 | 84 | 180 | 0.0 | 2.0 | 0.00 | 0.09 | 0.09 | 69 | 1013.6 |
| 20260903213123 | 82 | 172 | 0.0 | 2.0 | 0.00 | 0.09 | 0.09 | 71 | 1013.7 |
| 20260903212619 | 82 | 90 | 0.0 | 2.0 | 0.00 | 0.09 | 0.09 | 73 | 1013.5 |
| 20260903212114 | 82 | 106 | 0.0 | 0.0 | 0.00 | 0.09 | 0.09 | 73 | 1013.5 |
| 20260903211609 | 80 | 90 | 2.0 | 5.0 | 0.00 | 0.09 | 0.09 | 75 | 1013.5 |
| 20260903211106 | 81 | 60 | 1.0 | 3.0 | 0.00 | 0.09 | 0.09 | 73 | 1013.4 |
| 20260903210601 | 81 | 99 | 0.0 | 2.0 | 0.00 | 0.09 | 0.09 | 73 | 1013.2 |
| 20260903210056 | 80 | 100 | 2.0 | 7.0 | 0.00 | 0.09 | 0.09 | 74 | 1013.2 |
| 20260903205555 | 81 | 93 | 3.0 | 4.0 | 0.00 | 0.09 | 0.09 | 72 | 1013.2 |
| 20260903205050 | 82 | 74 | 2.0 | 5.0 | 0.00 | 0.09 | 0.09 | 70 | 1013.2 |
| 20260903204546 | 82 | 30 | 2.0 | 4.0 | 0.00 | 0.09 | 0.09 | 69 | 1013.1 |
| 20260903204041 | 81 | 97 | 4.0 | 5.0 | 0.00 | 0.09 | 0.09 | 67 | 1013.3 |
| 20260903203537 | 82 | 90 | 3.0 | 3.0 | 0.00 | 0.09 | 0.09 | 70 | 1013.4 |
| 20260903203036 | 82 | 81 | 2.0 | 3.0 | 0.00 | 0.09 | 0.09 | 68 | 1013.3 |
| 20260903202532 | 82 | 114 | 1.0 | 3.0 | 0.00 | 0.09 | 0.09 | 70 | 1013.4 |
| 20260903202027 | 80 | 336 | 2.0 | 3.0 | 0.00 | 0.09 | 0.09 | 73 | 1013.5 |
| 20260903201522 | 81 | 327 | 2.0 | 3.0 | 0.00 | 0.09 | 0.09 | 76 | 1013.7 |
| 20260903201021 | 80 | 90 | 0.0 | 2.0 | 0.00 | 0.09 | 0.09 | 78 | 1013.4 |
| 20260903200516 | 79 | 200 | 1.0 | 3.0 | 0.00 | 0.09 | 0.09 | 79 | 1013.4 |
| 20260903200011 | 78 | 199 | 2.0 | 4.0 | 0.00 | 0.09 | 0.09 | 81 | 1013.8 |
| 20260903195507 | 78 | 246 | 3.0 | 4.0 | 0.00 | 0.09 | 0.09 | 80 | 1013.9 |
| 20260903195003 | 78 | 201 | 2.0 | 4.0 | 0.00 | 0.09 | 0.09 | 79 | 1013.7 |
| 20260903194457 | 79 | 170 | 3.0 | 6.0 | 0.00 | 0.09 | 0.09 | 82 | 1013.7 |
| 20260903193953 | 78 | 180 | 3.0 | 7.0 | 0.00 | 0.09 | 0.09 | 80 | 1013.7 |
| 20260903193449 | 78 | 212 | 2.0 | 4.0 | 0.00 | 0.09 | 0.09 | 83 | 1013.9 |
| 20260903192943 | 77 | 206 | 5.0 | 8.0 | 0.00 | 0.09 | 0.09 | 84 | 1013.9 |
| 20260903192441 | 77 | 181 | 6.0 | 9.0 | 0.00 | 0.09 | 0.09 | 84 | 1013.9 |
| 20260903191935 | 77 | 157 | 6.0 | 9.0 | 0.00 | 0.09 | 0.09 | 85 | 1014.1 |
| 20260903191432 | 77 | 201 | 5.0 | 7.0 | 0.00 | 0.09 | 0.09 | 85 | 1014.5 |
| 20260903190931 | 77 | 218 | 5.0 | 8.0 | 0.00 | 0.09 | 0.09 | 84 | 1014.6 |
| 20260903190431 | 77 | 195 | 4.0 | 7.0 | 0.00 | 0.09 | 0.09 | 86 | 1014.4 |
| 20260903185925 | 76 | 207 | 5.0 | 7.0 | 0.00 | 0.09 | 0.09 | 87 | 1014.5 |
| 20260903185421 | 76 | 233 | 3.0 | 5.0 | 0.00 | 0.09 | 0.09 | 87 | 1014.3 |
| 20260903184916 | 77 | 228 | 0.0 | 3.0 | 0.00 | 0.09 | 0.09 | 87 | 1014.6 |
| 20260903184413 | 76 | 155 | 3.0 | 6.0 | 0.00 | 0.09 | 0.09 | 87 | 1014.8 |
| 20260903183912 | 75 | 137 | 6.0 | 7.0 | 0.00 | 0.09 | 0.09 | 87 | 1014.7 |
| 20260903183407 | 76 | 132 | 2.0 | 4.0 | 0.00 | 0.09 | 0.09 | 87 | 1014.5 |
| 20260903182907 | 75 | 145 | 1.0 | 5.0 | 0.00 | 0.09 | 0.09 | 87 | 1015.0 |
| 20260903182405 | 75 | 144 | 2.0 | 5.0 | 0.00 | 0.09 | 0.09 | 87 | 1014.9 |
| 20260903181900 | 76 | 106 | 2.0 | 7.0 | 0.00 | 0.09 | 0.09 | 87 | 1014.7 |
| 20260903181355 | 76 | 113 | 2.0 | 8.0 | 0.00 | 0.09 | 0.09 | 87 | 1014.8 |
| 20260903180855 | 77 | 78 | 2.0 | 4.0 | 0.00 | 0.09 | 0.09 | 87 | 1015.2 |
| 20260903180349 | 76 | 0 | 3.0 | 4.0 | 0.00 | 0.09 | 0.09 | 87 | 1014.8 |
| 20260903175849 | 75 | 17 | 2.0 | 4.0 | 0.00 | 0.09 | 0.09 | 90 | 1014.8 |
| 20260903175343 | 75 | 49 | 2.0 | 6.0 | 0.00 | 0.09 | 0.09 | 91 | 1014.5 |
| 20260903174838 | 75 | 36 | 2.0 | 3.0 | 0.00 | 0.09 | 0.09 | 93 | 1014.6 |
| 20260903174333 | 74 | 77 | 2.0 | 5.0 | 0.00 | 0.09 | 0.09 | 93 | 1014.8 |
| 20260903173832 | 74 | 90 | 0.0 | 5.0 | 0.00 | 0.09 | 0.09 | 92 | 1014.7 |
| 20260903173328 | 74 | 11 | 2.0 | 2.0 | 0.00 | 0.09 | 0.09 | 93 | 1014.4 |
| 20260903172824 | 74 | 112 | 2.0 | 3.0 | 0.00 | 0.09 | 0.09 | 93 | 1014.3 |
| 20260903172318 | 74 | 38 | 2.0 | 3.0 | 0.00 | 0.09 | 0.09 | 94 | 1014.8 |
| 20260903171814 | 73 | 99 | 3.0 | 3.0 | 0.00 | 0.09 | 0.09 | 94 | 1013.8 |
| 20260903171309 | 73 | 133 | 3.0 | 4.0 | 0.00 | 0.09 | 0.09 | 94 | 1013.8 |
| 20260903170808 | 73 | 124 | 2.0 | 4.0 | 0.00 | 0.09 | 0.09 | 95 | 1013.8 |
| 20260903170303 | 73 | 97 | 1.0 | 2.0 | 0.00 | 0.09 | 0.09 | 95 | 1013.9 |
| 20260903165801 | 73 | 95 | 4.0 | 4.0 | 0.00 | 0.09 | 0.09 | 95 | 1014.0 |
| 20260903165257 | 73 | 101 | 2.0 | 4.0 | 0.00 | 0.09 | 0.09 | 95 | 1013.9 |
| 20260903164751 | 73 | 80 | 2.0 | 2.0 | 0.00 | 0.09 | 0.09 | 95 | 1013.9 |
| 20260903164247 | 73 | 82 | 1.0 | 4.0 | 0.00 | 0.09 | 0.09 | 95 | 1013.9 |
| 20260903163746 | 73 | 2 | 4.0 | 5.0 | 0.00 | 0.09 | 0.09 | 95 | 1013.8 |
| 20260903163243 | 73 | 354 | 5.0 | 5.0 | 0.00 | 0.09 | 0.09 | 95 | 1013.6 |
| 20260903162738 | 72 | 11 | 3.0 | 9.0 | 0.00 | 0.09 | 0.09 | 95 | 1013.7 |
| 20260903162234 | 72 | 347 | 5.0 | 6.0 | 0.00 | 0.09 | 0.09 | 96 | 1013.9 |
| 20260903161730 | 72 | 6 | 6.0 | 8.0 | 0.02 | 0.09 | 0.09 | 96 | 1014.1 |
| 20260903161225 | 72 | 16 | 4.0 | 6.0 | 0.02 | 0.09 | 0.09 | 96 | 1014.0 |
| 20260903160721 | 73 | 0 | 2.0 | 4.0 | 0.02 | 0.09 | 0.09 | 96 | 1014.0 |
| 20260903160220 | 72 | 0 | 3.0 | 3.0 | 0.02 | 0.09 | 0.09 | 96 | 1014.5 |
| 20260903155719 | 72 | 14 | 0.0 | 3.0 | 0.05 | 0.09 | 0.09 | 96 | 1014.3 |
| 20260903155214 | 72 | 355 | 2.0 | 4.0 | 0.02 | 0.08 | 0.08 | 96 | 1014.5 |
| 20260903154709 | 72 | 334 | 5.0 | 5.0 | 0.09 | 0.08 | 0.08 | 95 | 1014.4 |
| 20260903154205 | 72 | 0 | 2.0 | 6.0 | 0.09 | 0.07 | 0.07 | 95 | 1014.3 |
| 20260903153701 | 72 | 352 | 3.0 | 6.0 | 0.02 | 0.06 | 0.06 | 96 | 1014.6 |
| 20260903153157 | 72 | 341 | 2.0 | 7.0 | 0.00 | 0.06 | 0.06 | 96 | 1014.6 |
| 20260903152652 | 72 | 15 | 2.0 | 7.0 | 0.00 | 0.06 | 0.06 | 96 | 1014.6 |
| 20260903152149 | 72 | 339 | 3.0 | 3.0 | 0.00 | 0.06 | 0.06 | 96 | 1014.8 |
| 20260903151648 | 72 | 0 | 3.0 | 3.0 | 0.00 | 0.06 | 0.06 | 96 | 1014.6 |
| 20260903151148 | 73 | 353 | 3.0 | 3.0 | 0.00 | 0.06 | 0.06 | 96 | 1014.3 |
| 20260903150643 | 72 | 328 | 0.0 | 4.0 | 0.00 | 0.06 | 0.06 | 95 | 1014.1 |
| 20260903150138 | 73 | 351 | 2.0 | 2.0 | 0.00 | 0.06 | 0.06 | 95 | 1013.7 |
| 20260903145638 | 73 | 8 | 0.0 | 3.0 | 0.00 | 0.06 | 0.06 | 95 | 1013.8 |
| 20260903145133 | 73 | 352 | 0.0 | 0.0 | 0.00 | 0.06 | 0.06 | 95 | 1013.6 |
| 20260903144632 | 73 | 352 | 0.0 | 0.0 | 0.00 | 0.06 | 0.06 | 95 | 1013.4 |
| 20260903144128 | 72 | 105 | 0.0 | 2.0 | 0.02 | 0.06 | 0.06 | 95 | 1013.2 |
| 20260903143624 | 72 | 132 | 0.0 | 0.0 | 0.12 | 0.06 | 0.06 | 95 | 1013.4 |
| 20260903143119 | 72 | 169 | 0.0 | 2.0 | 0.19 | 0.05 | 0.05 | 95 | 1013.3 |
| 20260903142615 | 72 | 165 | 4.0 | 5.0 | 0.09 | 0.03 | 0.03 | 95 | 1013.3 |
| 20260903142112 | 72 | 166 | 5.0 | 8.0 | 0.02 | 0.02 | 0.02 | 95 | 1013.2 |
| 20260903141607 | 72 | 157 | 7.0 | 8.0 | 0.00 | 0.02 | 0.02 | 94 | 1013.3 |
| 20260903141102 | 72 | 142 | 5.0 | 8.0 | 0.00 | 0.02 | 0.02 | 95 | 1013.3 |
| 20260903140558 | 72 | 147 | 7.0 | 9.0 | 0.00 | 0.02 | 0.02 | 94 | 1013.4 |
| 20260903140053 | 72 | 164 | 6.0 | 8.0 | 0.00 | 0.02 | 0.02 | 94 | 1013.5 |
| 20260903135548 | 72 | 168 | 5.0 | 7.0 | 0.00 | 0.02 | 0.02 | 94 | 1014.0 |
| 20260903135043 | 72 | 174 | 3.0 | 6.0 | 0.00 | 0.02 | 0.02 | 94 | 1013.8 |
| 20260903134542 | 72 | 182 | 4.0 | 7.0 | 0.00 | 0.02 | 0.02 | 94 | 1013.8 |
| 20260903134038 | 72 | 172 | 4.0 | 7.0 | 0.00 | 0.02 | 0.02 | 94 | 1013.8 |
| 20260903133536 | 72 | 165 | 3.0 | 7.0 | 0.00 | 0.02 | 0.02 | 94 | 1013.8 |
| 20260903133031 | 72 | 146 | 5.0 | 7.0 | 0.00 | 0.02 | 0.02 | 94 | 1013.6 |
| 20260903132531 | 72 | 155 | 3.0 | 7.0 | 0.00 | 0.02 | 0.02 | 94 | 1013.5 |
| 20260903132027 | 72 | 154 | 3.0 | 8.0 | 0.00 | 0.02 | 0.02 | 94 | 1013.4 |
| 20260903131521 | 72 | 128 | 5.0 | 7.0 | 0.00 | 0.02 | 0.02 | 95 | 1013.1 |
| 20260903131020 | 71 | 142 | 6.0 | 6.0 | 0.00 | 0.02 | 0.02 | 95 | 1013.1 |
| 20260903130515 | 71 | 170 | 3.0 | 4.0 | 0.00 | 0.02 | 0.02 | 95 | 1013.0 |
| 20260903130015 | 71 | 159 | 3.0 | 6.0 | 0.00 | 0.02 | 0.02 | 96 | 1013.0 |
| 20260903125514 | 71 | 161 | 2.0 | 6.0 | 0.00 | 0.02 | 0.02 | 96 | 1013.1 |
| 20260903125009 | 71 | 147 | 5.0 | 6.0 | 0.00 | 0.02 | 0.02 | 96 | 1013.2 |
| 20260903124503 | 70 | 120 | 0.0 | 2.0 | 0.00 | 0.02 | 0.02 | 97 | 1013.2 |
| 20260903124003 | 70 | 123 | 0.0 | 3.0 | 0.00 | 0.02 | 0.02 | 96 | 1013.4 |
| 20260903123457 | 70 | 157 | 0.0 | 4.0 | 0.00 | 0.02 | 0.02 | 96 | 1013.2 |
| 20260903122955 | 70 | 160 | 0.0 | 2.0 | 0.00 | 0.02 | 0.02 | 96 | 1013.3 |
| 20260903122450 | 70 | 151 | 3.0 | 4.0 | 0.00 | 0.02 | 0.02 | 97 | 1013.1 |
| 20260903121949 | 70 | 161 | 2.0 | 2.0 | 0.00 | 0.02 | 0.02 | 97 | 1013.3 |
| 20260903121444 | 69 | 151 | 0.0 | 3.0 | 0.00 | 0.02 | 0.02 | 96 | 1013.2 |
| 20260903120941 | 69 | 139 | 2.0 | 4.0 | 0.00 | 0.02 | 0.02 | 96 | 1013.3 |
| 20260903120439 | 69 | 146 | 4.0 | 5.0 | 0.00 | 0.02 | 0.02 | 97 | 1013.3 |
| 20260903115938 | 69 | 148 | 3.0 | 5.0 | 0.00 | 0.02 | 0.02 | 96 | 1013.2 |
| 20260903115438 | 69 | 147 | 2.0 | 5.0 | 0.00 | 0.02 | 0.02 | 97 | 1013.2 |
| 20260903114932 | 69 | 139 | 2.0 | 4.0 | 0.00 | 0.02 | 0.02 | 97 | 1013.1 |
| 20260903114428 | 69 | 134 | 5.0 | 6.0 | 0.00 | 0.02 | 0.02 | 97 | 1013.2 |
| 20260903113924 | 69 | 139 | 5.0 | 6.0 | 0.00 | 0.02 | 0.02 | 97 | 1013.2 |
| 20260903113420 | 69 | 144 | 3.0 | 5.0 | 0.00 | 0.02 | 0.02 | 97 | 1013.1 |
| 20260903112915 | 69 | 133 | 3.0 | 6.0 | 0.00 | 0.02 | 0.02 | 97 | 1013.1 |
| 20260903112411 | 69 | 147 | 4.0 | 5.0 | 0.00 | 0.02 | 0.02 | 96 | 1013.1 |
| 20260903111909 | 69 | 144 | 3.0 | 4.0 | 0.00 | 0.02 | 0.02 | 96 | 1013.3 |
| 20260903111409 | 69 | 135 | 5.0 | 5.0 | 0.00 | 0.02 | 0.02 | 97 | 1013.1 |
| 20260903110906 | 69 | 146 | 3.0 | 5.0 | 0.00 | 0.02 | 0.02 | 97 | 1013.4 |
| 20260903110401 | 69 | 138 | 3.0 | 4.0 | 0.00 | 0.02 | 0.02 | 97 | 1013.3 |
| 20260903105855 | 69 | 133 | 3.0 | 3.0 | 0.00 | 0.02 | 0.02 | 96 | 1013.4 |
| 20260903105350 | 69 | 135 | 3.0 | 5.0 | 0.00 | 0.02 | 0.02 | 96 | 1013.3 |
| 20260903104844 | 69 | 135 | 3.0 | 4.0 | 0.00 | 0.02 | 0.02 | 96 | 1013.2 |
| 20260903104339 | 69 | 142 | 3.0 | 6.0 | 0.00 | 0.02 | 0.02 | 96 | 1013.2 |
| 20260903103836 | 69 | 145 | 4.0 | 6.0 | 0.00 | 0.02 | 0.02 | 96 | 1013.4 |
| 20260903103332 | 69 | 133 | 5.0 | 6.0 | 0.00 | 0.02 | 0.02 | 96 | 1013.0 |
| 20260903102827 | 68 | 135 | 3.0 | 6.0 | 0.00 | 0.02 | 0.02 | 96 | 1013.4 |
| 20260903102322 | 68 | 129 | 6.0 | 7.0 | 0.00 | 0.02 | 0.02 | 96 | 1013.3 |
| 20260903101821 | 68 | 161 | 4.0 | 6.0 | 0.00 | 0.02 | 0.02 | 96 | 1013.4 |
| 20260903101316 | 68 | 154 | 2.0 | 4.0 | 0.00 | 0.02 | 0.02 | 96 | 1013.3 |
| 20260903100811 | 68 | 151 | 0.0 | 2.0 | 0.00 | 0.02 | 0.02 | 96 | 1013.4 |
| 20260903100306 | 69 | 130 | 0.0 | 4.0 | 0.00 | 0.02 | 0.02 | 96 | 1013.7 |
| 20260903095803 | 69 | 159 | 5.0 | 5.0 | 0.00 | 0.02 | 0.02 | 96 | 1013.4 |
| 20260903095257 | 69 | 148 | 4.0 | 6.0 | 0.00 | 0.02 | 0.02 | 96 | 1013.2 |
| 20260903094753 | 69 | 151 | 6.0 | 8.0 | 0.00 | 0.02 | 0.02 | 96 | 1013.2 |
| 20260903094247 | 69 | 173 | 5.0 | 6.0 | 0.00 | 0.02 | 0.02 | 96 | 1013.5 |
| 20260903093743 | 69 | 160 | 6.0 | 6.0 | 0.00 | 0.02 | 0.02 | 96 | 1013.2 |
| 20260903093239 | 69 | 159 | 4.0 | 5.0 | 0.00 | 0.02 | 0.02 | 96 | 1013.4 |
| 20260903092738 | 69 | 162 | 5.0 | 6.0 | 0.00 | 0.02 | 0.02 | 96 | 1013.4 |
| 20260903092233 | 69 | 148 | 4.0 | 5.0 | 0.00 | 0.02 | 0.02 | 96 | 1013.3 |
| 20260903091732 | 69 | 145 | 1.0 | 4.0 | 0.00 | 0.02 | 0.02 | 96 | 1013.2 |
| 20260903091226 | 69 | 135 | 5.0 | 5.0 | 0.00 | 0.02 | 0.02 | 96 | 1012.9 |
| 20260903090721 | 69 | 163 | 5.0 | 5.0 | 0.00 | 0.02 | 0.02 | 96 | 1013.1 |
| 20260903090220 | 69 | 149 | 3.0 | 6.0 | 0.00 | 0.02 | 0.02 | 96 | 1013.1 |
| 20260903085714 | 68 | 154 | 4.0 | 5.0 | 0.09 | 0.02 | 0.02 | 96 | 1012.9 |
| 20260903085209 | 68 | 160 | 5.0 | 7.0 | 0.09 | 0.02 | 0.02 | 96 | 1013.1 |
| 20260903084707 | 68 | 134 | 6.0 | 8.0 | 0.00 | 0.00 | 0.00 | 96 | 1013.2 |
| 20260903084202 | 68 | 158 | 3.0 | 7.0 | 0.00 | 0.00 | 0.00 | 96 | 1013.2 |
| 20260903083657 | 68 | 135 | 6.0 | 6.0 | 0.00 | 0.00 | 0.00 | 96 | 1013.1 |
| 20260903083151 | 68 | 142 | 3.0 | 6.0 | 0.00 | 0.00 | 0.00 | 96 | 1013.3 |
| 20260903082645 | 68 | 124 | 4.0 | 5.0 | 0.00 | 0.00 | 0.00 | 96 | 1013.0 |
| 20260903082141 | 68 | 126 | 6.0 | 6.0 | 0.00 | 0.00 | 0.00 | 96 | 1013.1 |
| 20260903081636 | 68 | 141 | 5.0 | 6.0 | 0.00 | 0.00 | 0.00 | 96 | 1013.2 |
| 20260903081132 | 69 | 135 | 5.0 | 6.0 | 0.00 | 0.00 | 0.00 | 96 | 1013.0 |
| 20260903080628 | 69 | 139 | 4.0 | 6.0 | 0.00 | 0.00 | 0.00 | 96 | 1013.3 |
| 20260903080126 | 69 | 133 | 5.0 | 6.0 | 0.00 | 0.00 | 0.00 | 96 | 1013.2 |
| 20260903075624 | 69 | 126 | 4.0 | 6.0 | 0.00 | 0.00 | 0.00 | 96 | 1013.2 |
| 20260903075120 | 69 | 133 | 5.0 | 6.0 | 0.00 | 0.00 | 0.00 | 96 | 1013.3 |
| 20260903074620 | 68 | 135 | 5.0 | 6.0 | 0.00 | 0.00 | 0.00 | 96 | 1013.2 |
| 20260903074114 | 69 | 142 | 5.0 | 6.0 | 0.00 | 0.00 | 0.00 | 96 | 1013.4 |
| 20260903073610 | 69 | 135 | 5.0 | 6.0 | 0.00 | 0.00 | 0.00 | 96 | 1013.4 |
| 20260903073105 | 69 | 132 | 4.0 | 6.0 | 0.00 | 0.00 | 0.00 | 96 | 1013.3 |
| 20260903072601 | 69 | 137 | 6.0 | 6.0 | 0.00 | 0.00 | 0.00 | 96 | 1013.3 |
| 20260903072057 | 69 | 139 | 5.0 | 7.0 | 0.00 | 0.00 | 0.00 | 95 | 1013.3 |
| 20260903071553 | 69 | 139 | 5.0 | 5.0 | 0.00 | 0.00 | 0.00 | 95 | 1013.3 |
| 20260903071047 | 69 | 140 | 5.0 | 6.0 | 0.00 | 0.00 | 0.00 | 95 | 1013.2 |
| 20260903070542 | 69 | 151 | 3.0 | 6.0 | 0.00 | 0.00 | 0.00 | 95 | 1013.2 |
| 20260903070038 | 69 | 143 | 5.0 | 6.0 | 0.00 | 0.00 | 0.00 | 95 | 1013.3 |
| 20260903065537 | 70 | 157 | 4.0 | 7.0 | 0.00 | 0.00 | 0.00 | 95 | 1013.3 |
| 20260903065036 | 69 | 155 | 5.0 | 7.0 | 0.00 | 0.00 | 0.00 | 95 | 1013.3 |
| 20260903064531 | 69 | 159 | 7.0 | 8.0 | 0.00 | 0.00 | 0.00 | 95 | 1013.5 |
| 20260903064027 | 70 | 160 | 7.0 | 9.0 | 0.00 | 0.00 | 0.00 | 95 | 1013.4 |
| 20260903063522 | 69 | 180 | 6.0 | 7.0 | 0.00 | 0.00 | 0.00 | 95 | 1013.4 |
| 20260903063017 | 69 | 141 | 4.0 | 6.0 | 0.00 | 0.00 | 0.00 | 95 | 1013.6 |
| 20260903062512 | 69 | 169 | 5.0 | 5.0 | 0.00 | 0.00 | 0.00 | 95 | 1013.6 |
| 20260903062008 | 69 | 162 | 7.0 | 7.0 | 0.00 | 0.00 | 0.00 | 95 | 1013.3 |
| 20260903061503 | 69 | 158 | 5.0 | 6.0 | 0.00 | 0.00 | 0.00 | 95 | 1013.4 |
| 20260903060957 | 69 | 160 | 4.0 | 6.0 | 0.00 | 0.00 | 0.00 | 95 | 1013.8 |
| 20260903060452 | 69 | 158 | 5.0 | 5.0 | 0.00 | 0.00 | 0.00 | 95 | 1013.6 |
| 20260903055950 | 69 | 152 | 5.0 | 6.0 | 0.00 | 0.00 | 0.00 | 95 | 1013.5 |
| 20260903055449 | 69 | 178 | 3.0 | 7.0 | 0.00 | 0.00 | 0.00 | 95 | 1013.5 |
| 20260903054948 | 69 | 167 | 5.0 | 6.0 | 0.00 | 0.00 | 0.00 | 95 | 1013.5 |
| 20260903054443 | 69 | 157 | 5.0 | 6.0 | 0.00 | 0.00 | 0.00 | 95 | 1013.8 |
| 20260903053939 | 69 | 163 | 5.0 | 6.0 | 0.00 | 0.00 | 0.00 | 95 | 1013.4 |
| 20260903053439 | 69 | 159 | 4.0 | 6.0 | 0.00 | 0.00 | 0.00 | 95 | 1013.4 |
| 20260903052936 | 69 | 171 | 4.0 | 6.0 | 0.00 | 0.00 | 0.00 | 95 | 1013.6 |
| 20260903052431 | 69 | 172 | 4.0 | 6.0 | 0.00 | 0.00 | 0.00 | 95 | 1013.4 |
| 20260903051927 | 69 | 163 | 5.0 | 6.0 | 0.00 | 0.00 | 0.00 | 95 | 1013.5 |
| 20260903051422 | 69 | 197 | 4.0 | 5.0 | 0.00 | 0.00 | 0.00 | 95 | 1013.4 |
| 20260903050918 | 69 | 163 | 5.0 | 5.0 | 0.00 | 0.00 | 0.00 | 95 | 1013.4 |
| 20260903050416 | 69 | 158 | 6.0 | 7.0 | 0.00 | 0.00 | 0.00 | 95 | 1013.4 |
| 20260903045911 | 69 | 161 | 5.0 | 6.0 | 0.00 | 0.27 | 0.27 | 94 | 1013.3 |
| 20260903045406 | 70 | 158 | 5.0 | 6.0 | 0.00 | 0.27 | 0.27 | 94 | 1013.3 |
| 20260903044904 | 69 | 155 | 5.0 | 6.0 | 0.00 | 0.27 | 0.27 | 94 | 1013.4 |
| 20260903044403 | 70 | 158 | 5.0 | 5.0 | 0.00 | 0.27 | 0.27 | 94 | 1013.4 |
| 20260903043900 | 70 | 157 | 5.0 | 6.0 | 0.00 | 0.27 | 0.27 | 94 | 1013.3 |
| 20260903043355 | 70 | 152 | 5.0 | 7.0 | 0.00 | 0.27 | 0.27 | 94 | 1013.3 |
| 20260903042854 | 70 | 140 | 7.0 | 8.0 | 0.00 | 0.27 | 0.27 | 94 | 1013.4 |
| 20260903042349 | 70 | 144 | 6.0 | 7.0 | 0.00 | 0.27 | 0.27 | 94 | 1013.4 |
| 20260903041845 | 70 | 152 | 4.0 | 6.0 | 0.00 | 0.27 | 0.27 | 94 | 1013.4 |
| 20260903041341 | 70 | 146 | 6.0 | 6.0 | 0.00 | 0.27 | 0.27 | 94 | 1013.2 |
| 20260903040836 | 70 | 139 | 4.0 | 6.0 | 0.00 | 0.27 | 0.27 | 94 | 1013.4 |
| 20260903040335 | 70 | 141 | 4.0 | 6.0 | 0.00 | 0.27 | 0.27 | 94 | 1013.3 |
| 20260903035832 | 70 | 161 | 5.0 | 7.0 | 0.00 | 0.27 | 0.27 | 94 | 1013.3 |
| 20260903035326 | 70 | 155 | 6.0 | 7.0 | 0.00 | 0.27 | 0.27 | 94 | 1013.2 |
| 20260903034822 | 70 | 130 | 4.0 | 6.0 | 0.00 | 0.27 | 0.27 | 94 | 1013.0 |
| 20260903034317 | 70 | 154 | 5.0 | 6.0 | 0.00 | 0.27 | 0.27 | 94 | 1013.2 |
| 20260903033812 | 70 | 143 | 5.0 | 6.0 | 0.00 | 0.27 | 0.27 | 94 | 1013.3 |
| 20260903033307 | 70 | 123 | 3.0 | 6.0 | 0.00 | 0.27 | 0.27 | 94 | 1013.1 |
| 20260903032801 | 70 | 138 | 6.0 | 6.0 | 0.00 | 0.27 | 0.27 | 94 | 1013.4 |
| 20260903032258 | 70 | 132 | 5.0 | 7.0 | 0.00 | 0.27 | 0.27 | 94 | 1013.4 |
| 20260903031753 | 70 | 126 | 4.0 | 8.0 | 0.00 | 0.27 | 0.27 | 94 | 1013.3 |
| 20260903031252 | 71 | 127 | 4.0 | 7.0 | 0.00 | 0.27 | 0.27 | 94 | 1013.1 |
| 20260903030748 | 71 | 119 | 3.0 | 4.0 | 0.00 | 0.27 | 0.27 | 93 | 1013.6 |
| 20260903030243 | 71 | 105 | 3.0 | 6.0 | 0.00 | 0.27 | 0.27 | 93 | 1013.4 |
| 20260903025739 | 71 | 153 | 3.0 | 6.0 | 0.00 | 0.27 | 0.27 | 93 | 1013.1 |
| 20260903025234 | 71 | 139 | 5.0 | 5.0 | 0.00 | 0.27 | 0.27 | 93 | 1013.2 |
| 20260903024729 | 72 | 144 | 3.0 | 6.0 | 0.00 | 0.27 | 0.27 | 93 | 1013.3 |
| 20260903024228 | 72 | 133 | 6.0 | 7.0 | 0.00 | 0.27 | 0.27 | 93 | 1013.3 |
| 20260903023724 | 72 | 155 | 4.0 | 6.0 | 0.00 | 0.27 | 0.27 | 93 | 1013.2 |
| 20260903023219 | 72 | 129 | 6.0 | 6.0 | 0.00 | 0.27 | 0.27 | 92 | 1013.2 |
| 20260903022714 | 72 | 160 | 7.0 | 9.0 | 0.00 | 0.27 | 0.27 | 92 | 1013.2 |